Brainerd, MN

2:37 PM CDT on March 29, 2017 (GMT -0500)
Brainerd-Crow Wing County Regional

Weather History for KBRD - April, 2014

Change the Weather History Date:

Tuesday, April 29, 2014

  Actual Average Record
Temperature  
Mean Temperature 46 °F -  
Max Temperature 52 °F 59 °F 82 °F (2001)
Min Temperature 41 °F 36 °F 15 °F (1958)
Degree Days  
Heating Degree Days 18    
Moisture  
Dew Point 30 °F    
Average Humidity 57    
Maximum Humidity 79    
Minimum Humidity 39    
Precipitation  
Precipitation 0.00 in - - ()
Sea Level Pressure  
Sea Level Pressure 29.85 in    
Wind  
Wind Speed 17 mph (NE)    
Max Wind Speed 23 mph    
Max Gust Speed 37 mph    
Visibility 9 miles    
Events Rain    
Averages and records for this station are not official NWS values.
T = Trace of Precipitation, MM = Missing Value Source: NWS Daily Summary

Daily Weather History Graph

Daily Weather History Graph

Search for Another Location

Airport or City:

Trip Planner

Search our weather history database for the weather conditions in past years. The results will help you decide how hot, cold, wet, or windy it might be!

Date:

Astronomy

Apr. 29, 2014 Rise Set
Actual Time 6:05 AM CDT 8:23 PM CDT
Civil Twilight 5:32 AM CDT 8:56 PM CDT
Nautical Twilight 4:51 AM CDT 9:37 PM CDT
Astronomical Twilight 4:04 AM CDT 10:24 PM CDT
Moon 6:24 AM CDT 9:04 PM CDT
Length of Visible Light 15h 23m
Length of Day
14h 17m
New Moon, 0% of the Moon is Illuminated
Apr 29
New Moon
May 6
First Quarter
May 14
Full
May 21
Last Quarter
May 28
New

Hourly Weather History & Observations

Time (CDT) Temp. Windchill Dew Point Humidity Pressure Visibility Wind Dir Wind Speed Gust Speed Precip Events Conditions
12:53 AM 44.1 °F 37.1 °F 28.9 °F 55% 29.84 in 10.0 mi ENE 15.0 mph 25.3 mph N/A   Overcast
1:53 AM 44.1 °F 36.8 °F 30.0 °F 58% 29.85 in 10.0 mi ENE 16.1 mph 24.2 mph 0.00 in Rain Light Rain
2:53 AM 44.1 °F 37.4 °F 28.0 °F 53% 29.84 in 10.0 mi ENE 13.8 mph 34.5 mph 0.00 in Rain Light Rain
3:53 AM 43.0 °F 35.1 °F 27.0 °F 53% 29.83 in 10.0 mi ENE 17.3 mph 29.9 mph 0.00 in   Overcast
4:53 AM 43.0 °F 35.1 °F 26.1 °F 51% 29.83 in 10.0 mi ENE 17.3 mph 26.5 mph 0.00 in   Overcast
5:53 AM 43.0 °F 34.8 °F 24.1 °F 47% 29.83 in 10.0 mi NE 18.4 mph 26.5 mph N/A   Overcast
6:53 AM 44.1 °F 35.4 °F 24.1 °F 45% 29.84 in 10.0 mi NE 21.9 mph 29.9 mph N/A   Overcast
8:53 AM 44.1 °F 35.4 °F 25.0 °F 47% 29.85 in 10.0 mi NE 21.9 mph 29.9 mph N/A   Mostly Cloudy
9:53 AM 45.0 °F 37.6 °F 25.0 °F 46% 29.85 in 10.0 mi ENE 17.3 mph 29.9 mph N/A   Clear
10:53 AM 46.0 °F 38.0 °F 25.0 °F 44% 29.86 in 10.0 mi NNE 21.9 mph 33.4 mph N/A   Mostly Cloudy
11:53 AM 50.0 °F - 27.0 °F 41% 29.84 in 10.0 mi NNE 23.0 mph 32.2 mph N/A   Partly Cloudy
12:53 PM 48.9 °F - 26.1 °F 41% 29.83 in 10.0 mi NNE 17.3 mph 28.8 mph N/A   Mostly Cloudy
1:53 PM 50.0 °F - 27.0 °F 41% 29.82 in 10.0 mi NNE 17.3 mph 28.8 mph N/A   Overcast
2:53 PM 51.1 °F - 27.0 °F 39% 29.83 in 10.0 mi NNE 19.6 mph 27.6 mph N/A   Overcast
3:53 PM 48.9 °F - 30.9 °F 50% 29.83 in 10.0 mi North 18.4 mph 29.9 mph 0.00 in   Overcast
4:53 PM 50.0 °F - 30.9 °F 48% 29.84 in 10.0 mi NNE 20.7 mph 29.9 mph 0.00 in Rain Light Rain
5:53 PM 46.9 °F - 35.1 °F 63% 29.87 in 5.0 mi NNE 20.7 mph 36.8 mph 0.00 in Rain Light Rain
6:53 PM 46.0 °F 39.3 °F 36.0 °F 68% 29.88 in 7.0 mi NNE 16.1 mph - 0.00 in Rain Light Rain
7:12 PM 45.0 °F 37.9 °F 36.0 °F 71% 29.86 in 8.0 mi NNE 16.1 mph 25.3 mph 0.00 in Rain Light Rain
7:53 PM 45.0 °F 38.9 °F 36.0 °F 71% 29.89 in 8.0 mi NNE 12.7 mph 19.6 mph 0.00 in Rain Light Rain
8:53 PM 44.1 °F 37.1 °F 36.0 °F 73% 29.90 in 10.0 mi NNE 15.0 mph 23.0 mph 0.00 in Rain Light Rain
9:53 PM 43.0 °F 36.4 °F 35.1 °F 74% 29.90 in 5.0 mi North 12.7 mph - 0.00 in Rain Light Rain
10:24 PM 42.1 °F 36.1 °F 36.0 °F 79% 29.87 in 7.0 mi North 10.4 mph - 0.00 in Rain Light Rain
10:34 PM 42.1 °F 36.1 °F 35.1 °F 76% 29.86 in 7.0 mi North 10.4 mph - 0.00 in Rain Light Rain
10:53 PM 42.1 °F 34.9 °F 35.1 °F 76% 29.89 in 7.0 mi North 13.8 mph - 0.00 in Rain Light Rain
11:53 PM 41.0 °F 33.5 °F 35.1 °F 79% 29.87 in 8.0 mi North 13.8 mph 20.7 mph 0.00 in Rain Light Rain